Weather History for Fremont, NE

Change the Weather History Date:

Sunday, April 14, 2013

  Actual Average Record
Temperature  
Mean Temperature 54 °F -  
Max Temperature 66 °F 63 °F 88 °F (1954)
Min Temperature 41 °F 38 °F 20 °F (1950)
Degree Days  
Heating Degree Days 11    
Growing Degree Days 4 (Base 50)    
Moisture  
Dew Point 44 °F    
Average Humidity 77    
Maximum Humidity 97    
Minimum Humidity 57    
Precipitation  
Precipitation 0.39 in - - ()
Sea Level Pressure  
Sea Level Pressure 29.49 in    
Wind  
Wind Speed 13 mph (South)    
Max Wind Speed 26 mph    
Max Gust Speed 33 mph    
Visibility 10 miles    
Events Rain , Thunderstorm    
Averages and records for this station are not official NWS values.
T = Trace of Precipitation, MM = Missing Value Source: NWS Daily Summary

Daily Weather History Graph

Daily Weather History Graph

Search for Another Location

Airport:

Trip Planner

Search our weather history database for the weather conditions in past years. The results will help you decide how hot, cold, wet, or windy it might be!

Date:

Astronomy

Apr. 14, 2013 Rise Set
Actual Time 6:47 AM CDT 8:05 PM CDT
Civil Twilight 6:18 AM CDT 8:34 PM CDT
Nautical Twilight 5:44 AM CDT 9:08 PM CDT
Astronomical Twilight 5:08 AM CDT 9:45 PM CDT
Moon 9:23 AM CDT (4/14) No Moon Set
Length of Visible Light 14h 15m
Length of Day
13h 18m
Waxing Crescent, 17% of the Moon is Illuminated
Apr 14
Waxing Crescent
Apr 18
First Quarter
Apr 25
Full
May 2
Last Quarter
May 9
New

Hourly Weather History & Observations

Time (CDT) Temp. Windchill Dew Point Humidity Pressure Visibility Wind Dir Wind Speed Gust Speed Precip Events Conditions
12:15 AM 45.3 °F 39.3 °F 39.2 °F 79% 29.67 in 7.0 mi East 12.7 mph - 0.02 in Rain , Thunderstorm Thunderstorms and Rain
12:35 AM 44.4 °F 40.0 °F 40.5 °F 86% 29.69 in 7.0 mi East 8.1 mph - 0.05 in Rain , Thunderstorm Light Thunderstorms and Rain
12:55 AM 43.7 °F 38.1 °F 41.0 °F 90% 29.68 in 5.0 mi ENE 10.4 mph - 0.10 in Rain , Thunderstorm Thunderstorms and Rain
1:15 AM 43.3 °F 36.8 °F 41.9 °F 95% 29.66 in 5.0 mi East 12.7 mph - 0.07 in Rain Heavy Rain
1:35 AM 42.8 °F 37.5 °F 41.9 °F 97% 29.65 in 7.0 mi East 9.2 mph - 0.16 in Rain Light Rain
1:55 AM 42.8 °F 37.5 °F 41.9 °F 97% 29.65 in 7.0 mi East 9.2 mph - 0.20 in Rain Light Rain
2:15 AM 43.0 °F 36.0 °F 42.1 °F 97% 29.63 in 10.0 mi East 13.8 mph - 0.02 in Rain Light Rain
2:35 AM 43.7 °F 36.3 °F 41.5 °F 92% 29.60 in 10.0 mi East 16.1 mph 26.5 mph 0.04 in Rain Rain
2:55 AM 42.8 °F 35.4 °F 41.4 °F 95% 29.57 in 10.0 mi East 15.0 mph 19.6 mph 0.04 in Rain Light Rain
3:15 AM 43.2 °F 34.5 °F 41.2 °F 93% 29.55 in 10.0 mi East 20.7 mph 24.2 mph 0.01 in Rain , Thunderstorm Light Thunderstorms and Rain
3:35 AM 43.5 °F 35.8 °F 41.2 °F 91% 29.53 in 7.0 mi East 17.3 mph 23.0 mph 0.05 in Rain , Thunderstorm Light Thunderstorms and Rain
3:55 AM 43.7 °F 36.3 °F 41.2 °F 91% 29.51 in 10.0 mi East 16.1 mph 23.0 mph 0.05 in Rain Light Rain
4:15 AM 43.7 °F 38.6 °F 41.4 °F 91% 29.53 in 10.0 mi ENE 9.2 mph 17.3 mph N/A Thunderstorm Mostly Cloudy
4:35 AM 43.7 °F 38.1 °F 41.2 °F 91% 29.51 in 10.0 mi ENE 10.4 mph - N/A   Scattered Clouds
4:55 AM 43.7 °F 36.9 °F 41.5 °F 92% 29.50 in 10.0 mi ENE 13.8 mph - N/A   Clear
5:15 AM 43.7 °F 37.3 °F 41.7 °F 93% 29.48 in 10.0 mi ENE 12.7 mph 19.6 mph N/A   Clear
5:35 AM 43.7 °F 37.3 °F 41.7 °F 93% 29.46 in 10.0 mi ENE 12.7 mph 19.6 mph N/A   Clear
5:55 AM 43.9 °F 37.2 °F 41.9 °F 93% 29.44 in 10.0 mi East 13.8 mph 19.6 mph N/A   Clear
6:15 AM 44.1 °F 37.4 °F 41.9 °F 92% 29.43 in 10.0 mi East 13.8 mph - N/A   Clear
6:35 AM 44.6 °F 38.4 °F 42.3 °F 91% 29.42 in 10.0 mi East 12.7 mph 18.4 mph N/A   Clear
6:55 AM 45.3 °F 39.7 °F 42.6 °F 90% 29.42 in 10.0 mi East 11.5 mph - N/A   Clear
7:15 AM 45.5 °F 39.6 °F 42.8 °F 90% 29.40 in 10.0 mi East 12.7 mph - N/A   Clear
7:35 AM 46.8 °F - 43.7 °F 89% 29.39 in 10.0 mi East 13.8 mph - N/A   Clear
7:55 AM 48.0 °F - 44.2 °F 87% 29.37 in 10.0 mi East 13.8 mph - N/A   Clear
8:15 AM 49.1 °F - 44.6 °F 84% 29.36 in 10.0 mi ESE 17.3 mph 21.9 mph N/A   Clear
8:35 AM 49.5 °F - 45.0 °F 84% 29.35 in 10.0 mi ESE 16.1 mph - N/A   Clear
8:55 AM 50.2 °F - 45.5 °F 84% 29.34 in 10.0 mi ESE 15.0 mph 18.4 mph N/A   Clear
9:15 AM 52.0 °F - 46.4 °F 81% 29.33 in 10.0 mi ESE 15.0 mph - N/A   Clear
9:35 AM 53.1 °F - 47.7 °F 82% 29.32 in 10.0 mi ESE 13.8 mph - N/A   Clear
9:55 AM 55.9 °F - 49.1 °F 78% 29.32 in 10.0 mi ESE 13.8 mph - N/A   Clear
10:15 AM 58.5 °F - 49.8 °F 73% 29.31 in 10.0 mi ESE 17.3 mph 25.3 mph N/A   Clear
10:35 AM 59.2 °F - 50.4 °F 73% 29.32 in 10.0 mi SE 15.0 mph - N/A   Clear
10:55 AM 60.4 °F - 50.5 °F 70% 29.32 in 10.0 mi SE 15.0 mph - N/A   Scattered Clouds
11:15 AM 61.3 °F - 51.8 °F 71% 29.32 in 10.0 mi SE 11.5 mph - N/A   Overcast
11:35 AM 63.7 °F - 52.7 °F 67% 29.33 in 10.0 mi South 8.1 mph 18.4 mph N/A   Overcast
11:55 AM 64.8 °F - 51.4 °F 62% 29.32 in 10.0 mi South 15.0 mph - N/A   Scattered Clouds
12:15 PM 65.8 °F - 51.8 °F 60% 29.33 in 10.0 mi South 12.7 mph 20.7 mph N/A   Clear
12:35 PM 66.6 °F - 51.6 °F 59% 29.32 in 10.0 mi South 11.5 mph 18.4 mph N/A   Clear
12:55 PM 64.9 °F - 50.7 °F 60% 29.34 in 10.0 mi SW 11.5 mph - N/A   Clear
1:15 PM 60.4 °F - 50.4 °F 69% 29.36 in 10.0 mi West 26.5 mph 33.4 mph N/A   Scattered Clouds
1:35 PM 56.5 °F - 49.1 °F 76% 29.37 in 10.0 mi West 18.4 mph 26.5 mph N/A   Scattered Clouds
1:55 PM 57.2 °F - 48.6 °F 73% 29.40 in 10.0 mi West 20.7 mph 27.6 mph N/A   Scattered Clouds
2:15 PM 55.9 °F - 47.8 °F 74% 29.40 in 10.0 mi West 21.9 mph 31.1 mph N/A   Clear
2:35 PM 55.4 °F - 48.0 °F 76% 29.42 in 10.0 mi West 20.7 mph 29.9 mph N/A   Clear
3:15 PM 57.4 °F - 48.9 °F 73% 29.42 in 10.0 mi West 15.0 mph - N/A   Scattered Clouds
3:35 PM 58.1 °F - 48.4 °F 70% 29.45 in 10.0 mi West 24.2 mph - N/A   Clear
3:55 PM 58.6 °F - 47.3 °F 66% 29.47 in 10.0 mi West 20.7 mph 31.1 mph N/A   Mostly Cloudy
4:15 PM 57.4 °F - 45.5 °F 65% 29.48 in 10.0 mi West 18.4 mph 26.5 mph N/A   Mostly Cloudy
4:35 PM 56.3 °F - 45.5 °F 67% 29.48 in 10.0 mi WNW 16.1 mph 23.0 mph N/A   Mostly Cloudy
4:55 PM 55.4 °F - 44.4 °F 67% 29.49 in 10.0 mi West 12.7 mph - N/A   Mostly Cloudy
5:15 PM 56.3 °F - 44.4 °F 64% 29.48 in 10.0 mi West 10.4 mph - N/A   Mostly Cloudy
5:35 PM 57.2 °F - 43.9 °F 61% 29.50 in 10.0 mi West 8.1 mph - N/A   Mostly Cloudy
5:55 PM 57.9 °F - 43.3 °F 58% 29.51 in 10.0 mi WSW 8.1 mph - N/A   Mostly Cloudy
6:15 PM 57.7 °F - 43.2 °F 58% 29.52 in 10.0 mi West 10.4 mph - N/A   Mostly Cloudy
6:35 PM 57.2 °F - 43.2 °F 59% 29.54 in 10.0 mi WSW 6.9 mph - N/A   Mostly Cloudy
6:55 PM 56.5 °F - 43.5 °F 62% 29.55 in 10.0 mi WSW 6.9 mph - N/A   Overcast
7:15 PM 56.7 °F - 41.4 °F 57% 29.57 in 10.0 mi West 19.6 mph 24.2 mph N/A   Overcast
7:35 PM 55.0 °F - 40.1 °F 57% 29.57 in 10.0 mi West 15.0 mph - N/A   Mostly Cloudy
7:55 PM 53.6 °F - 40.1 °F 60% 29.59 in 10.0 mi West 11.5 mph - N/A   Clear
8:15 PM 52.0 °F - 38.3 °F 60% 29.60 in 10.0 mi West 12.7 mph - N/A   Clear
8:35 PM 50.4 °F - 38.3 °F 63% 29.61 in 10.0 mi West 10.4 mph - N/A   Clear
8:55 PM 50.7 °F - 37.6 °F 61% 29.62 in 10.0 mi West 9.2 mph - N/A   Clear
9:15 PM 47.3 °F - 39.4 °F 74% 29.64 in 10.0 mi West 8.1 mph - N/A   Clear
9:35 PM 45.5 °F 41.8 °F 39.2 °F 79% 29.65 in 10.0 mi West 6.9 mph - N/A   Clear
9:55 PM 44.8 °F 42.4 °F 39.2 °F 81% 29.65 in 10.0 mi West 4.6 mph - N/A   Clear
10:15 PM 44.8 °F 42.4 °F 39.0 °F 80% 29.65 in 10.0 mi WSW 4.6 mph - N/A   Clear
10:35 PM 45.5 °F 43.2 °F 38.3 °F 76% 29.65 in 10.0 mi WSW 4.6 mph - N/A   Clear
10:55 PM 43.3 °F 41.7 °F 38.1 °F 82% 29.66 in 10.0 mi WSW 3.5 mph - N/A   Clear
11:15 PM 42.6 °F 40.9 °F 37.9 °F 83% 29.67 in 10.0 mi SW 3.5 mph - N/A   Clear
11:35 PM 43.3 °F 39.9 °F 37.4 °F 80% 29.67 in 10.0 mi SW 5.8 mph - N/A   Clear
11:55 PM 41.5 °F 38.6 °F 36.1 °F 81% 29.67 in 10.0 mi SW 4.6 mph - N/A   Clear